SCP
0 0 0 0 0 0 0 0 0 0 0 0 0 1 2 2 2 1 1 1 1 1 2 2 2 2 2 1 1 1 1 0 0 0 0 0 0 0 0 1 1 1 1
0 0 0 0 0 0 0 0 0 0 0 0 0 0 0 0 1 2 2 2 1 1 1 2 2 2 2 1 1 1 1 1 0 1 0 0 0 0 1 1 1 1 1
0 0 0 0 0 0 0 0 0 0 0 0 0 0 0 0 0 0 1 1 1 2 1 2 2 2 3 3 2 2 1 1 1 1 1 1 0 0 1 2 2 2 2
0 0 0 0 0 0 0 0 0 0 0 0 0 0 0 0 0 0 0 0 0 0 1 2 2 2 3 3 3 2 2 1 1 1 1 0 0 1 1 3 2 2 1
0 0 0 0 0 0 0 0 0 0 0 0 0 0 0 0 0 0 0 0 0 0 0 1 2 2 2 2 2 3 2 2 2 1 1 1 2 2 1 2 3 2 2
0 0 0 0 0 0 0 0 0 0 0 0 0 0 0 0 0 0 0 -0 -0 0 0 1 1 2 2 2 2 3 2 2 2 1 1 1 1 2 2 1 2 2 1
0 0 0 0 0 0 0 0 0 0 0 0 0 0 0 0 0 0 0 0 -0 -0 -0 0 1 2 2 3 3 2 2 2 2 1 1 1 1 1 2 2 1 1 0
0 0 0 0 -0 -0 -0 0 0 0 0 0 0 0 0 0 0 0 0 0 0 0 -0 0 0 1 2 2 2 2 2 1 1 1 1 1 1 1 1 2 1 0 0
-0 -0 -0 -0 0 0 0 0 0 0 0 0 0 0 0 0 0 0 0 0 0 0 0 0 0 1 1 1 1 1 1 1 0 0 0 0 0 1 1 2 1 1 0
0 0 0 0 0 0 0 0 0 0 0 0 0 0 0 0 0 0 0 0 0 0 0 -0 0 0 0 1 1 1 1 1 0 0 0 0 0 -0 0 0 1 0 0
0 0 0 0 0 0 0 0 0 0 0 0 0 0 0 0 0 0 0 0 0 0 0 0 -0 0 0 0 0 0 0 0 0 0 0 0 0 0 0 0 0 0 0
0 0 0 0 0 0 0 0 0 0 0 0 0 0 0 0 0 0 0 0 0 0 0 0 0 -0 0 0 0 0 0 0 0 0 0 0 0 0 0 0 0 0 0
0 0 0 0 0 0 0 0 0 -0 0 0 0 0 0 0 0 0 0 0 0 0 0 0 0 -0 0 0 0 0 0 0 0 0 0 0 0 0 -0 0 0 0 0
0 0 0 0 0 -0 -0 -0 0 0 0 0 0 0 0 0 0 0 0 0 0 0 0 0 0 0 -0 0 0 0 0 0 0 0 0 0 0 0 0 0 0 0 0
0 0 0 0 0 -0 -0 -0 0 0 0 0 0 0 0 0 0 0 0 0 0 0 0 0 0 0 0 0 0 0 0 0 0 0 -0 -0 -0 -0 -0 0 0 0 0
0 0 -0 -0 -0 -0 -0 -0 0 0 0 0 0 0 0 0 0 0 0 0 0 0 0 0 0 0 0 -0 0 0 -0 -0 -0 -0 -0 -1 -0 0 0 0 0 0 0
0 -0 -0 -0 -0 -0 -0 0 0 0 0 0 0 0 0 0 0 0 0 0 0 0 0 0 0 0 0 -0 -0 -0 -0 -0 -0 -0 -0 -0 -0 0 0 0 0 0 0
-0 -0 -0 -0 -0 -0 0 0 0 0 0 0 0 0 0 0 0 0 0 0 0 0 0 0 0 0 0 0 -0 -0 -0 -0 -0 -0 0 0 0 0 0 0 0 0 0
-0 -0 -0 -0 -0 -0 0 0 0 0 0 0 0 0 0 0 0 0 0 0 0 0 0 0 0 0 0 -0 0 -0 -0 -0 -0 -0 0 0 0 0 0 0 0 0 0
-0 -0 -0 -0 -0 0 0 0 0 0 0 0 0 0 0 0 0 0 0 0 0 0 0 0 0 0 0 0 0 -0 -0 -0 -0 0 0 0 0 0 0 0 0 0 0
-0 -0 -0 -0 -0 0 0 0 0 0 0 0 0 0 0 0 0 0 0 0 0 0 0 0 0 0 0 0 0 0 -0 -0 0 0 0 0 0 0 0 0 0 0 0
-0 -0 -0 -0 0 0 0 0 0 0 0 0 0 0 0 0 0 0 0 0 0 0 0 0 0 0 0 0 0 -0 -0 -0 0 0 0 0 0 0 0 0 0 0 0
-0 -0 -0 -0 0 0 0 0 0 0 0 0 0 0 0 0 0 0 0 0 0 0 0 0 0 0 0 0 0 0 0 -0 -0 0 0 0 0 0 0 0 0 0 0
-0 -0 -0 0 0 0 0 0 0 0 0 0 0 0 0 0 0 0 0 0 0 0 0 0 0 0 0 0 0 0 0 0 0 0 0 0 0 0 0 0 0 0 0
0 -0 -0 0 0 0 0 0 0 0 0 0 0 0 0 0 0 0 0 0 0 0 0 0 0 0 0 0 0 0 0 0 0 0 0 0 0 0 0 0 0 0 0
0 -0 0 0 0 0 0 0 0 0 0 0 0 0 0 0 0 0 0 -0 0 0 0 0 0 0 0 0 0 0 0 0 0 0 0 0 0 0 0 0 0 -0 0
Wind_Speed_500mb
40 42 38 44 34 23 23 20 13 14 11 11 8 13 25 37 53 58 64 70 71 71 75 83 84 87 84 89 92 92 91 87 87 84 82 81 70 68 65 58 57 57 58
23 30 30 28 22 20 17 13 10 9 7 10 13 16 25 29 29 33 43 54 70 77 80 87 91 94 96 97 94 96 98 101 93 90 85 72 81 75 73 64 68 67 62
55 48 43 33 26 21 12 5 2 6 11 12 13 20 28 36 45 48 47 47 54 55 76 85 90 97 105 105 104 100 105 110 105 96 84 42 53 65 81 77 76 74 70
48 41 38 31 22 20 11 4 8 12 16 23 26 29 37 44 49 53 56 62 69 73 71 72 91 95 100 112 116 116 114 109 102 95 105 104 68 44 53 86 78 77 76
38 34 28 24 20 13 7 2 7 16 26 33 39 44 44 47 52 57 67 74 78 81 86 84 78 93 99 108 112 108 118 118 115 106 90 104 112 85 64 61 84 82 82
34 28 19 11 5 6 14 19 24 33 37 39 44 46 51 57 63 64 65 70 74 74 71 79 82 76 92 109 115 120 121 124 123 118 119 98 101 101 82 64 65 70 71
19 9 3 8 9 20 24 28 34 41 42 48 55 55 53 53 58 61 66 68 69 72 74 73 76 82 81 92 107 113 117 118 119 122 116 122 106 105 102 81 65 63 65
13 8 11 18 14 18 27 31 33 40 44 48 52 51 55 63 62 62 62 70 75 73 69 73 75 79 79 81 87 100 106 104 111 127 104 89 93 98 108 107 93 70 63
28 22 24 25 22 22 22 32 37 40 44 48 51 56 60 65 64 65 63 68 72 80 80 69 75 76 79 78 79 89 98 101 101 84 39 72 44 72 100 104 107 86 62
32 27 11 2 5 15 20 26 29 32 38 45 50 49 49 52 53 57 62 67 69 73 79 84 73 69 63 67 73 79 86 97 103 101 90 68 105 102 110 123 111 92 71
31 36 27 16 10 4 7 16 25 32 37 39 41 46 51 56 57 53 52 48 48 57 71 79 78 67 62 59 65 72 77 87 88 66 51 53 55 80 75 110 101 79 68
28 18 14 15 20 27 35 43 51 61 70 78 83 83 79 73 71 64 55 50 46 54 61 65 72 70 64 65 62 67 78 78 72 56 52 44 46 54 61 92 67 60 53
20 16 21 30 38 47 56 68 79 90 96 102 107 110 111 108 105 103 95 76 61 49 50 53 56 66 67 65 59 59 72 77 73 63 52 53 57 15 66 64 63 48 51
24 28 35 44 53 63 74 85 92 97 107 112 103 96 88 85 91 96 99 100 90 76 55 44 42 54 68 59 53 58 74 78 75 74 66 54 66 66 48 54 53 56 49
38 43 48 56 65 77 83 89 104 110 102 96 87 79 79 77 77 79 81 82 87 92 81 63 42 42 59 63 63 61 62 54 46 59 72 64 52 50 56 63 61 53 53
36 42 51 63 70 78 93 109 107 96 88 76 70 76 72 72 73 67 77 78 66 66 77 73 56 35 50 60 55 41 43 57 58 51 43 44 43 46 56 50 47 48 51
40 54 64 68 77 92 104 96 87 80 75 69 69 68 64 65 69 75 68 61 61 67 69 72 71 47 44 54 55 47 56 62 58 50 53 39 39 46 45 43 40 35 33
57 66 66 77 92 95 85 76 71 70 69 65 67 65 62 59 58 65 68 66 64 57 47 46 49 65 45 47 54 53 65 83 83 78 65 46 44 47 50 41 37 36 32
60 62 76 88 89 78 69 65 67 67 65 66 63 59 53 59 60 67 69 65 60 45 54 55 50 45 53 42 61 69 61 62 68 76 62 58 63 52 43 43 41 36 31
62 78 82 84 75 67 61 59 62 63 63 59 55 48 58 67 75 77 72 67 61 60 52 38 38 58 50 49 47 48 76 72 59 47 65 63 58 53 42 35 31 29 22
75 79 79 72 67 59 54 58 61 61 58 56 50 56 67 72 70 67 75 66 56 50 43 53 29 37 59 62 54 58 77 64 52 72 65 62 54 45 38 32 24 19 14
76 73 70 69 61 54 52 58 60 59 55 46 55 65 71 76 82 74 77 61 50 47 33 41 41 32 38 49 43 46 90 67 73 78 72 60 51 42 38 30 22 14 8
65 64 65 67 60 53 50 57 58 54 40 49 60 67 75 71 71 65 60 47 42 39 30 32 36 22 33 36 47 27 51 84 99 86 70 57 47 43 37 26 15 13 15
61 65 67 67 65 57 52 50 49 39 43 55 66 64 62 64 62 52 38 45 36 33 30 29 28 22 21 27 33 47 60 83 87 72 61 53 49 43 37 25 11 16 14
63 64 64 62 61 56 52 44 36 36 45 53 60 65 53 59 51 39 26 25 26 29 34 27 31 23 15 32 38 25 70 83 76 71 64 57 53 50 36 21 4 17 8
63 63 59 56 56 53 47 40 33 37 43 53 62 60 54 49 41 36 25 18 18 20 30 25 36 31 10 21 42 34 42 70 68 65 61 58 52 41 29 13 10 16 5
Wind_Direction_500mb
231 238 237 235 229 198 195 195 154 142 130 140 187 245 261 260 263 264 266 268 271 270 270 266 260 258 255 254 250 250 248 248 248 251 252 251 247 247 244 241 242 243 245
138 127 145 148 146 157 172 187 192 173 180 233 262 268 274 280 282 277 278 279 270 271 272 272 270 262 258 254 252 247 248 249 246 245 246 249 248 245 234 233 239 245 248
129 120 124 119 119 131 127 126 193 264 287 317 299 288 284 282 284 286 286 285 281 281 276 272 270 270 267 259 255 252 245 247 244 240 234 235 241 248 237 233 233 238 245
115 111 116 115 114 109 100 22 318 309 309 305 312 315 308 306 303 298 294 290 284 281 278 281 272 269 266 265 259 257 252 245 239 241 237 237 246 236 233 235 235 235 237
123 122 114 113 117 129 148 117 345 326 314 309 309 309 305 303 301 299 298 300 300 295 284 275 275 272 265 264 262 256 258 256 248 235 238 239 239 239 244 229 228 231 236
125 119 116 128 113 345 321 316 316 317 309 307 309 305 302 302 302 304 304 304 304 303 291 284 279 277 273 266 265 265 261 260 255 247 239 234 235 229 233 230 227 230 235
126 105 5 343 295 294 290 297 296 295 294 293 295 294 291 289 294 297 298 303 305 308 305 299 289 285 276 273 268 267 267 261 258 253 240 237 234 233 230 233 228 224 228
183 231 268 270 268 268 270 276 284 289 288 291 293 294 290 290 291 294 292 294 298 303 305 302 294 286 282 276 270 268 266 264 263 252 238 239 235 234 230 228 227 225 227
209 234 247 242 261 275 270 289 289 287 289 291 291 291 286 286 285 287 284 287 292 298 303 305 297 293 288 277 276 272 270 269 261 254 284 284 315 271 231 236 236 224 225
233 246 254 85 245 258 265 265 278 292 289 283 278 271 269 270 277 282 283 285 287 292 295 300 303 290 295 286 278 277 273 267 267 268 266 271 274 291 291 237 240 231 230
85 89 89 84 75 48 322 323 318 316 311 305 294 285 280 278 275 274 274 276 285 292 295 300 299 300 285 287 287 281 277 269 266 262 268 259 249 257 260 233 228 226 227
78 64 35 0 337 329 321 319 315 311 306 302 299 293 287 283 283 279 276 274 279 278 285 295 300 304 303 291 283 280 273 266 249 241 245 244 235 248 232 219 219 223 228
69 38 2 348 336 329 325 322 318 316 314 311 308 303 297 289 283 281 280 278 281 284 283 284 303 302 303 299 278 275 268 258 243 240 236 231 214 211 202 216 224 225 231
26 4 350 339 332 329 326 322 318 314 313 311 308 303 301 297 294 287 283 281 274 278 284 285 292 299 303 300 279 274 262 254 253 250 228 203 164 143 198 218 225 224 218
357 350 342 336 332 328 323 319 316 316 314 311 308 306 305 303 300 299 295 287 278 271 274 281 289 293 294 294 290 275 264 250 212 182 166 165 158 168 203 213 210 214 213
354 343 335 332 327 324 321 318 317 315 314 311 307 309 306 303 304 298 297 292 287 277 268 272 274 293 287 296 288 260 239 194 187 192 206 220 205 209 207 210 213 215 204
338 335 333 327 322 321 320 319 318 315 314 315 316 318 313 302 297 300 302 299 289 286 280 267 269 272 276 287 280 241 222 213 230 241 235 233 223 208 189 182 182 187 198
336 332 327 322 319 320 322 318 316 315 315 311 316 316 315 313 308 306 303 297 295 291 278 269 268 259 267 274 261 266 239 239 258 261 244 214 203 191 180 182 194 195 189
332 327 321 318 321 324 323 318 321 320 316 315 315 315 317 312 312 312 310 304 284 284 270 269 256 249 256 263 274 245 253 253 270 255 233 198 180 173 179 180 174 174 179
326 321 322 325 325 326 324 321 323 319 318 317 312 310 311 312 313 310 304 305 297 285 268 277 263 247 240 251 263 236 240 255 267 245 190 175 167 168 164 169 165 159 166
326 328 328 326 328 328 325 321 318 318 319 313 312 316 319 319 311 307 304 300 292 282 270 255 255 235 227 240 248 238 227 256 263 189 177 170 168 166 162 153 143 130 138
332 332 328 328 333 334 328 322 322 324 320 317 317 320 322 319 316 307 299 286 289 280 267 253 247 254 218 235 215 227 233 238 208 182 175 171 169 167 156 146 130 106 68
335 335 334 334 337 336 331 324 325 326 322 318 320 325 328 323 324 314 297 273 283 275 260 244 239 242 217 217 226 235 214 207 190 176 174 170 168 164 160 150 115 62 22
338 343 343 339 337 336 332 328 327 324 319 324 329 328 332 327 334 327 299 282 276 266 239 222 222 213 203 203 191 198 197 186 184 170 167 170 169 173 171 157 94 36 13
350 349 342 336 335 337 336 334 331 328 326 329 332 336 328 343 341 339 331 294 271 262 238 214 209 207 186 184 193 173 179 179 178 164 166 166 170 172 173 175 75 2 4
356 353 350 347 346 345 343 345 335 329 329 330 335 340 338 341 350 349 342 321 267 252 220 220 200 203 187 180 186 192 146 172 171 168 165 170 173 177 182 194 299 315 315
Wind_Speed_850mb
40 42 38 44 34 23 23 20 13 14 11 11 8 13 25 37 53 58 64 70 71 71 75 83 84 87 84 89 92 92 91 87 87 84 82 81 70 68 65 58 57 57 58
23 30 30 28 22 20 17 13 10 9 7 10 13 16 25 29 29 33 43 54 70 77 80 87 91 94 96 97 94 96 98 101 93 90 85 72 81 75 73 64 68 67 62
55 48 43 33 26 21 12 5 2 6 11 12 13 20 28 36 45 48 47 47 54 55 76 85 90 97 105 105 104 100 105 110 105 96 84 42 53 65 81 77 76 74 70
48 41 38 31 22 20 11 4 8 12 16 23 26 29 37 44 49 53 56 62 69 73 71 72 91 95 100 112 116 116 114 109 102 95 105 104 68 44 53 86 78 77 76
38 34 28 24 20 13 7 2 7 16 26 33 39 44 44 47 52 57 67 74 78 81 86 84 78 93 99 108 112 108 118 118 115 106 90 104 112 85 64 61 84 82 82
34 28 19 11 5 6 14 19 24 33 37 39 44 46 51 57 63 64 65 70 74 74 71 79 82 76 92 109 115 120 121 124 123 118 119 98 101 101 82 64 65 70 71
19 9 3 8 9 20 24 28 34 41 42 48 55 55 53 53 58 61 66 68 69 72 74 73 76 82 81 92 107 113 117 118 119 122 116 122 106 105 102 81 65 63 65
13 8 11 18 14 18 27 31 33 40 44 48 52 51 55 63 62 62 62 70 75 73 69 73 75 79 79 81 87 100 106 104 111 127 104 89 93 98 108 107 93 70 63
28 22 24 25 22 22 22 32 37 40 44 48 51 56 60 65 64 65 63 68 72 80 80 69 75 76 79 78 79 89 98 101 101 84 39 72 44 72 100 104 107 86 62
32 27 11 2 5 15 20 26 29 32 38 45 50 49 49 52 53 57 62 67 69 73 79 84 73 69 63 67 73 79 86 97 103 101 90 68 105 102 110 123 111 92 71
31 36 27 16 10 4 7 16 25 32 37 39 41 46 51 56 57 53 52 48 48 57 71 79 78 67 62 59 65 72 77 87 88 66 51 53 55 80 75 110 101 79 68
28 18 14 15 20 27 35 43 51 61 70 78 83 83 79 73 71 64 55 50 46 54 61 65 72 70 64 65 62 67 78 78 72 56 52 44 46 54 61 92 67 60 53
20 16 21 30 38 47 56 68 79 90 96 102 107 110 111 108 105 103 95 76 61 49 50 53 56 66 67 65 59 59 72 77 73 63 52 53 57 15 66 64 63 48 51
24 28 35 44 53 63 74 85 92 97 107 112 103 96 88 85 91 96 99 100 90 76 55 44 42 54 68 59 53 58 74 78 75 74 66 54 66 66 48 54 53 56 49
38 43 48 56 65 77 83 89 104 110 102 96 87 79 79 77 77 79 81 82 87 92 81 63 42 42 59 63 63 61 62 54 46 59 72 64 52 50 56 63 61 53 53
36 42 51 63 70 78 93 109 107 96 88 76 70 76 72 72 73 67 77 78 66 66 77 73 56 35 50 60 55 41 43 57 58 51 43 44 43 46 56 50 47 48 51
40 54 64 68 77 92 104 96 87 80 75 69 69 68 64 65 69 75 68 61 61 67 69 72 71 47 44 54 55 47 56 62 58 50 53 39 39 46 45 43 40 35 33
57 66 66 77 92 95 85 76 71 70 69 65 67 65 62 59 58 65 68 66 64 57 47 46 49 65 45 47 54 53 65 83 83 78 65 46 44 47 50 41 37 36 32
60 62 76 88 89 78 69 65 67 67 65 66 63 59 53 59 60 67 69 65 60 45 54 55 50 45 53 42 61 69 61 62 68 76 62 58 63 52 43 43 41 36 31
62 78 82 84 75 67 61 59 62 63 63 59 55 48 58 67 75 77 72 67 61 60 52 38 38 58 50 49 47 48 76 72 59 47 65 63 58 53 42 35 31 29 22
75 79 79 72 67 59 54 58 61 61 58 56 50 56 67 72 70 67 75 66 56 50 43 53 29 37 59 62 54 58 77 64 52 72 65 62 54 45 38 32 24 19 14
76 73 70 69 61 54 52 58 60 59 55 46 55 65 71 76 82 74 77 61 50 47 33 41 41 32 38 49 43 46 90 67 73 78 72 60 51 42 38 30 22 14 8
65 64 65 67 60 53 50 57 58 54 40 49 60 67 75 71 71 65 60 47 42 39 30 32 36 22 33 36 47 27 51 84 99 86 70 57 47 43 37 26 15 13 15
61 65 67 67 65 57 52 50 49 39 43 55 66 64 62 64 62 52 38 45 36 33 30 29 28 22 21 27 33 47 60 83 87 72 61 53 49 43 37 25 11 16 14
63 64 64 62 61 56 52 44 36 36 45 53 60 65 53 59 51 39 26 25 26 29 34 27 31 23 15 32 38 25 70 83 76 71 64 57 53 50 36 21 4 17 8
63 63 59 56 56 53 47 40 33 37 43 53 62 60 54 49 41 36 25 18 18 20 30 25 36 31 10 21 42 34 42 70 68 65 61 58 52 41 29 13 10 16 5
Wind_Direction_850mb
231 238 237 235 229 198 195 195 154 142 130 140 187 245 261 260 263 264 266 268 271 270 270 266 260 258 255 254 250 250 248 248 248 251 252 251 247 247 244 241 242 243 245
138 127 145 148 146 157 172 187 192 173 180 233 262 268 274 280 282 277 278 279 270 271 272 272 270 262 258 254 252 247 248 249 246 245 246 249 248 245 234 233 239 245 248
129 120 124 119 119 131 127 126 193 264 287 317 299 288 284 282 284 286 286 285 281 281 276 272 270 270 267 259 255 252 245 247 244 240 234 235 241 248 237 233 233 238 245
115 111 116 115 114 109 100 22 318 309 309 305 312 315 308 306 303 298 294 290 284 281 278 281 272 269 266 265 259 257 252 245 239 241 237 237 246 236 233 235 235 235 237
123 122 114 113 117 129 148 117 345 326 314 309 309 309 305 303 301 299 298 300 300 295 284 275 275 272 265 264 262 256 258 256 248 235 238 239 239 239 244 229 228 231 236
125 119 116 128 113 345 321 316 316 317 309 307 309 305 302 302 302 304 304 304 304 303 291 284 279 277 273 266 265 265 261 260 255 247 239 234 235 229 233 230 227 230 235
126 105 5 343 295 294 290 297 296 295 294 293 295 294 291 289 294 297 298 303 305 308 305 299 289 285 276 273 268 267 267 261 258 253 240 237 234 233 230 233 228 224 228
183 231 268 270 268 268 270 276 284 289 288 291 293 294 290 290 291 294 292 294 298 303 305 302 294 286 282 276 270 268 266 264 263 252 238 239 235 234 230 228 227 225 227
209 234 247 242 261 275 270 289 289 287 289 291 291 291 286 286 285 287 284 287 292 298 303 305 297 293 288 277 276 272 270 269 261 254 284 284 315 271 231 236 236 224 225
233 246 254 85 245 258 265 265 278 292 289 283 278 271 269 270 277 282 283 285 287 292 295 300 303 290 295 286 278 277 273 267 267 268 266 271 274 291 291 237 240 231 230
85 89 89 84 75 48 322 323 318 316 311 305 294 285 280 278 275 274 274 276 285 292 295 300 299 300 285 287 287 281 277 269 266 262 268 259 249 257 260 233 228 226 227
78 64 35 0 337 329 321 319 315 311 306 302 299 293 287 283 283 279 276 274 279 278 285 295 300 304 303 291 283 280 273 266 249 241 245 244 235 248 232 219 219 223 228
69 38 2 348 336 329 325 322 318 316 314 311 308 303 297 289 283 281 280 278 281 284 283 284 303 302 303 299 278 275 268 258 243 240 236 231 214 211 202 216 224 225 231
26 4 350 339 332 329 326 322 318 314 313 311 308 303 301 297 294 287 283 281 274 278 284 285 292 299 303 300 279 274 262 254 253 250 228 203 164 143 198 218 225 224 218
357 350 342 336 332 328 323 319 316 316 314 311 308 306 305 303 300 299 295 287 278 271 274 281 289 293 294 294 290 275 264 250 212 182 166 165 158 168 203 213 210 214 213
354 343 335 332 327 324 321 318 317 315 314 311 307 309 306 303 304 298 297 292 287 277 268 272 274 293 287 296 288 260 239 194 187 192 206 220 205 209 207 210 213 215 204
338 335 333 327 322 321 320 319 318 315 314 315 316 318 313 302 297 300 302 299 289 286 280 267 269 272 276 287 280 241 222 213 230 241 235 233 223 208 189 182 182 187 198
336 332 327 322 319 320 322 318 316 315 315 311 316 316 315 313 308 306 303 297 295 291 278 269 268 259 267 274 261 266 239 239 258 261 244 214 203 191 180 182 194 195 189
332 327 321 318 321 324 323 318 321 320 316 315 315 315 317 312 312 312 310 304 284 284 270 269 256 249 256 263 274 245 253 253 270 255 233 198 180 173 179 180 174 174 179
326 321 322 325 325 326 324 321 323 319 318 317 312 310 311 312 313 310 304 305 297 285 268 277 263 247 240 251 263 236 240 255 267 245 190 175 167 168 164 169 165 159 166
326 328 328 326 328 328 325 321 318 318 319 313 312 316 319 319 311 307 304 300 292 282 270 255 255 235 227 240 248 238 227 256 263 189 177 170 168 166 162 153 143 130 138
332 332 328 328 333 334 328 322 322 324 320 317 317 320 322 319 316 307 299 286 289 280 267 253 247 254 218 235 215 227 233 238 208 182 175 171 169 167 156 146 130 106 68
335 335 334 334 337 336 331 324 325 326 322 318 320 325 328 323 324 314 297 273 283 275 260 244 239 242 217 217 226 235 214 207 190 176 174 170 168 164 160 150 115 62 22
338 343 343 339 337 336 332 328 327 324 319 324 329 328 332 327 334 327 299 282 276 266 239 222 222 213 203 203 191 198 197 186 184 170 167 170 169 173 171 157 94 36 13
350 349 342 336 335 337 336 334 331 328 326 329 332 336 328 343 341 339 331 294 271 262 238 214 209 207 186 184 193 173 179 179 178 164 166 166 170 172 173 175 75 2 4
356 353 350 347 346 345 343 345 335 329 329 330 335 340 338 341 350 349 342 321 267 252 220 220 200 203 187 180 186 192 146 172 171 168 165 170 173 177 182 194 299 315 315